Vorticity
3 4 4 5 5 6 6 6 6 6 6 6 6 6 6 6 7 7 8 8 8 9 9 9 8 6 5 8 12 16 18 16 16 14 8 5 3 4 5 5 5 5 5 5 5 6 6 6 6 6 5 5 5 5 6 7 9 10 12 13 13 12 11 10 7 5 3 2 2 3 5 7 9 11 13 14 15 16 16 15 13 10 8 6 5 5 5 5 5 4 4 5 6 8 8 6 7 8 10 12 12 12 10
4 5 6 6 6 6 7 7 7 6 6 6 6 6 6 7 7 8 8 9 9 8 8 8 6 5 7 12 16 17 15 12 11 9 5 4 4 4 4 4 5 5 6 7 7 7 6 6 6 6 6 6 5 5 5 6 7 9 11 12 13 13 12 10 8 6 4 2 2 2 3 5 7 10 11 12 13 14 15 15 15 14 13 10 8 6 5 3 3 3 4 6 7 8 8 7 6 7 9 11 13 14 13
6 6 6 6 6 6 6 6 6 6 6 6 6 6 7 7 8 8 9 11 10 8 7 6 6 9 13 15 14 12 8 5 3 3 2 3 3 3 3 4 4 5 6 7 8 7 7 6 6 6 7 7 7 7 6 6 7 8 10 11 12 13 12 10 8 6 4 3 2 1 2 3 5 7 10 11 12 12 13 14 14 15 15 14 12 10 8 7 6 6 7 8 9 9 9 8 6 5 6 9 11 13 13
6 6 6 6 6 6 6 6 6 6 6 6 6 7 7 8 8 9 12 12 9 5 4 6 9 12 12 10 8 5 2 1 -0 -0 1 2 3 3 3 4 4 5 6 7 8 8 7 6 6 6 6 8 9 9 9 8 7 7 8 10 11 12 12 11 9 7 5 4 2 2 1 2 3 4 7 9 10 11 12 12 13 13 14 14 13 13 11 10 10 10 10 10 10 11 11 10 8 5 3 5 7 9 10
6 6 6 6 6 7 7 7 6 6 6 6 7 7 7 8 7 8 10 7 3 1 3 8 9 8 8 7 5 4 3 2 2 1 1 2 3 3 3 4 4 4 5 6 6 7 6 5 4 4 4 5 7 10 11 11 10 9 8 9 10 11 12 11 10 8 6 5 4 3 2 1 1 2 3 6 8 10 11 12 12 12 12 12 12 12 12 11 11 11 11 11 12 12 13 12 10 6 3 3 4 5 6
6 7 6 6 7 7 7 7 7 6 6 6 7 7 8 8 7 7 7 3 2 3 8 10 9 7 7 6 5 4 5 4 4 3 3 3 3 3 3 4 4 4 4 4 4 5 4 3 2 1 1 2 4 7 10 12 12 11 10 10 10 10 11 11 10 9 7 6 5 4 3 2 1 1 0 2 4 7 9 10 11 12 12 12 12 12 11 11 11 10 10 11 12 13 14 13 11 8 5 4 3 3 3
7 7 6 6 7 8 8 7 6 6 6 7 7 8 8 7 7 7 6 6 7 8 10 7 6 5 5 4 4 4 4 4 3 2 2 1 1 1 2 3 4 4 4 3 3 2 2 1 0 -0 -0 1 2 4 7 9 11 12 11 11 10 10 10 10 10 9 8 7 6 5 4 4 3 2 0 -0 1 3 5 7 9 11 12 12 12 12 11 11 10 10 10 10 11 12 13 13 11 9 7 6 5 4 3
7 5 6 6 8 8 8 7 6 6 7 7 8 8 8 7 7 7 6 6 6 6 4 3 3 3 3 2 2 2 2 1 0 -1 -1 0 1 3 5 5 5 4 3 3 2 2 1 -0 -1 -1 -0 1 3 4 6 7 8 9 10 10 10 10 10 10 9 9 8 8 7 6 6 5 4 3 2 1 0 0 2 4 6 8 10 12 13 13 12 11 10 9 9 9 10 10 11 12 11 11 10 9 9 8 7
6 5 7 8 8 8 7 7 7 7 8 8 8 7 7 8 7 6 6 5 5 4 3 4 3 3 2 1 1 0 1 1 2 3 5 6 8 10 10 8 6 5 4 3 3 2 1 1 0 0 1 3 4 5 6 6 6 7 7 8 9 9 10 10 9 9 8 8 7 7 7 6 6 5 4 2 1 0 0 1 3 5 7 9 12 13 13 12 11 10 9 9 9 9 10 11 11 12 12 12 12 12 11
7 7 8 8 7 7 6 6 6 7 8 8 7 7 7 7 5 4 5 4 4 4 3 3 2 2 1 1 1 2 3 7 10 12 13 12 12 13 12 9 6 5 5 5 5 4 3 2 2 3 4 5 5 6 6 6 5 5 5 6 7 8 9 10 10 10 9 8 7 7 7 7 7 7 6 5 3 1 0 0 1 2 4 6 9 11 13 13 12 11 10 9 8 8 8 9 10 11 11 12 12 12 12
7 7 8 7 7 6 6 6 6 7 7 7 6 6 6 5 5 4 4 3 3 3 2 2 2 2 2 2 3 4 7 10 11 9 6 7 8 10 10 8 6 5 6 7 7 6 5 5 5 5 6 6 7 7 6 5 5 4 4 4 4 5 7 9 10 10 10 9 8 8 7 7 7 7 7 6 5 3 1 1 0 1 1 3 5 8 11 12 13 13 12 10 9 8 8 8 8 9 9 10 10 10 9
8 8 8 8 8 7 7 8 7 7 6 6 6 5 5 4 4 3 3 3 2 2 2 2 3 3 3 3 3 4 6 6 6 6 5 7 9 10 8 5 3 3 5 7 7 7 6 6 7 7 7 7 7 7 6 5 4 4 3 2 2 3 3 5 7 9 10 10 9 9 8 8 8 8 8 7 6 5 3 2 1 0 0 1 3 5 7 10 12 13 13 12 11 10 9 8 7 7 7 7 7 7 6
8 8 8 8 8 8 9 9 8 8 6 6 5 5 4 3 3 2 2 2 2 2 2 2 3 3 3 3 3 4 6 4 5 6 6 8 9 8 5 3 2 2 4 5 5 5 5 6 6 6 6 6 6 6 6 5 5 4 3 2 2 1 1 2 4 5 7 8 9 9 9 9 9 8 8 8 7 6 5 3 2 1 0 0 1 2 3 6 9 11 13 13 13 12 10 9 8 7 7 6 5 5 5
8 8 8 8 8 7 7 7 7 7 6 6 5 4 3 2 2 2 2 2 2 2 2 2 2 2 2 2 3 4 5 3 4 5 6 7 7 6 3 2 1 1 1 2 2 2 3 3 4 4 4 4 5 5 6 6 5 4 4 3 3 2 1 1 2 2 4 5 6 7 8 9 9 9 9 9 8 7 6 5 3 2 1 1 0 1 1 3 5 7 10 12 13 13 12 11 10 9 8 7 6 5 5
8 7 7 7 7 6 5 4 4 4 4 4 3 3 2 2 2 2 2 2 2 2 2 2 2 2 2 2 3 3 2 1 1 2 3 4 4 4 1 0 -0 -0 -0 -0 0 0 1 2 2 2 2 2 3 4 5 5 5 5 5 5 4 4 3 3 2 2 2 3 4 5 6 7 8 9 10 10 9 9 8 6 5 3 2 1 1 1 1 1 2 4 6 8 10 12 13 12 12 11 10 9 7 6 6
6 6 6 5 5 5 4 3 3 2 2 2 2 2 1 1 1 2 2 2 2 2 2 2 2 2 2 2 2 2 1 1 1 1 1 2 3 3 2 2 2 1 0 -1 -1 -1 0 1 1 2 1 2 3 4 4 5 5 5 5 5 5 5 5 5 5 4 3 3 3 3 4 5 7 9 10 10 10 10 10 8 7 5 3 2 1 1 1 1 1 2 3 5 7 9 11 12 12 12 12 11 10 9 8
5 4 4 4 3 3 3 3 2 2 1 1 1 1 1 1 1 2 2 2 2 2 2 2 2 1 1 1 1 0 0 0 1 1 1 1 2 2 3 3 3 3 2 1 -1 -2 -2 -1 0 1 2 3 4 4 4 4 4 4 4 5 5 6 7 7 7 6 5 4 4 4 4 4 5 6 7 9 9 10 10 10 9 7 5 4 3 2 2 1 1 1 2 3 4 6 8 9 11 12 12 12 12 11 10
3 3 3 3 2 2 2 2 2 1 1 1 1 1 1 2 2 2 2 2 2 1 1 1 1 1 1 1 0 -0 -0 0 0 0 1 1 1 1 2 3 4 4 4 2 0 -1 -1 1 3 4 4 5 5 5 5 4 4 4 4 4 5 5 6 7 7 7 7 6 5 5 5 5 5 5 6 7 8 9 10 11 10 9 7 6 4 3 3 2 2 1 1 2 2 3 5 6 8 9 11 12 12 12 12
2 2 2 2 2 2 2 2 2 2 2 2 2 2 2 2 1 1 1 1 1 1 1 1 1 1 1 1 1 0 0 0 1 1 1 1 1 1 2 4 5 5 4 3 2 1 3 6 8 7 6 6 5 5 5 5 5 4 4 4 4 5 5 6 7 7 7 6 6 6 6 6 6 6 6 6 7 8 9 10 11 11 10 8 6 5 4 3 3 2 2 1 1 2 3 4 5 7 8 10 11 12 12
2 2 2 2 2 2 2 2 2 2 2 2 2 2 1 1 1 1 1 1 1 1 1 1 1 1 1 1 1 1 1 1 1 1 1 1 1 1 1 4 5 4 4 2 2 4 6 9 8 6 3 3 4 5 6 6 6 5 5 5 5 4 5 5 6 6 7 5 4 5 5 5 5 5 5 5 5 5 6 8 10 11 12 10 9 7 5 5 4 4 3 2 2 1 2 2 3 5 6 7 9 10 11
3 3 3 3 3 3 3 3 3 2 2 2 2 2 2 1 1 1 1 1 1 1 1 1 1 1 1 1 1 1 1 1 1 1 1 1 1 1 1 2 2 2 2 3 5 8 9 8 4 1 -3 -1 2 5 6 7 6 6 6 6 5 5 4 4 5 5 6 5 5 4 4 4 4 4 3 3 3 3 4 6 8 10 12 12 11 9 7 6 5 5 5 4 3 2 2 2 2 3 4 5 7 8 9
3 3 3 3 3 3 3 3 3 3 3 3 3 2 2 2 2 2 2 1 1 1 1 1 1 1 1 1 1 1 1 1 1 1 1 2 2 2 1 1 1 1 3 6 9 10 8 5 1 -2 -5 -2 2 6 8 8 8 7 7 7 6 6 5 4 4 4 5 5 5 5 5 5 5 5 4 3 3 3 4 5 6 8 10 12 13 12 10 8 7 6 6 5 4 3 2 2 2 3 3 4 5 6 7
2 2 2 2 2 2 3 3 3 3 3 3 3 3 3 3 3 3 2 2 2 2 2 2 2 2 2 2 2 2 2 2 2 2 2 2 2 1 1 1 1 2 7 11 10 7 3 1 -1 -2 -3 1 6 10 11 10 9 8 7 7 7 6 5 5 4 4 4 4 5 5 5 7 7 8 7 6 5 5 5 5 6 7 8 11 13 13 12 10 9 7 7 6 6 4 3 2 2 2 3 3 4 5 6
-0 -0 -0 0 0 1 1 1 1 1 2 2 2 3 3 3 3 3 3 3 3 3 3 3 3 3 3 3 3 3 3 3 3 3 2 2 2 2 2 2 2 4 10 11 7 3 0 -0 -0 1 3 9 13 16 15 11 9 7 6 6 6 6 6 5 5 4 4 4 4 3 3 4 6 8 9 9 8 8 7 6 6 6 7 9 11 13 13 12 11 9 8 8 7 6 5 3 3 2 3 3 4 4 5
-2 -2 -2 -1 -1 -1 -1 -0 -0 0 1 1 2 2 3 3 3 3 3 3 3 3 4 4 4 4 4 4 4 4 4 4 3 3 3 3 2 2 2 2 2 4 9 7 3 1 1 2 4 6 10 16 19 18 13 8 5 3 4 5 6 6 6 6 5 5 4 4 4 3 3 3 3 4 6 7 8 8 8 7 6 6 6 7 9 11 13 13 12 10 10 9 9 8 7 5 4 3 3 3 3 4 5
-3 -3 -2 -2 -1 -1 -1 -0 0 1 1 2 2 2 3 3 3 3 3 3 3 3 4 4 4 4 4 4 5 5 5 4 4 4 4 3 3 3 2 2 3 4 6 3 1 2 4 6 8 11 15 18 17 11 3 -1 -1 0 3 5 6 7 7 7 6 5 5 4 4 4 4 4 4 4 5 5 5 6 7 6 6 5 5 5 6 8 11 12 11 10 9 10 11 10 9 7 6 4 3 3 3 4 4
-1 -1 -1 -0 -0 0 1 1 1 2 3 3 3 3 4 4 4 4 4 4 4 4 4 4 4 5 5 5 5 5 5 5 4 4 4 4 3 3 3 3 3 2 2 -1 -1 2 7 9 10 12 15 13 8 0 -7 -7 -4 1 5 7 8 8 8 7 7 6 5 5 4 4 4 4 5 5 6 6 5 4 4 5 6 6 6 6 6 8 10 12 12 11 8 8 9 10 10 9 8 6 4 4 3 3 4
2 2 2 2 2 3 3 3 4 4 5 5 5 5 5 5 5 5 5 5 5 5 5 5 5 5 5 5 5 5 5 5 5 4 4 4 3 3 3 3 2 2 1 -0 2 7 12 11 10 10 11 5 -2 -8 -11 -7 -1 4 8 8 9 9 9 8 7 7 6 5 5 4 4 4 4 5 6 7 7 6 4 3 3 5 7 7 8 8 10 12 13 13 10 8 8 9 10 10 9 8 5 4 4 4 4
7 7 6 6 6 6 6 6 6 6 7 7 7 7 7 7 7 7 7 7 7 6 6 6 6 5 6 6 6 6 5 5 5 4 4 4 4 3 2 2 2 2 2 6 9 12 11 8 7 6 4 -2 -7 -9 -7 -1 4 7 9 9 9 9 9 8 7 6 6 5 5 4 4 4 4 4 5 6 7 7 6 4 2 2 3 5 6 6 6 8 10 12 12 10 9 8 9 10 10 9 7 5 4 4 4
10 10 10 10 9 9 9 8 8 8 8 8 8 8 8 9 9 8 8 8 8 8 7 7 7 7 7 6 6 6 5 5 5 5 5 5 4 4 3 3 3 4 6 11 13 11 7 4 3 1 -2 -7 -7 -5 -0 5 8 9 9 9 8 8 8 7 6 5 4 4 4 4 4 4 4 4 4 6 7 7 7 5 3 1 1 3 5 5 5 6 7 8 10 10 10 9 8 9 10 10 9 7 5 4 4
10 10 11 11 11 11 11 10 9 9 9 9 9 9 9 9 10 10 9 9 8 8 8 8 8 8 8 7 7 6 6 6 6 6 6 6 5 4 4 4 4 5 8 10 10 7 3 0 -2 -3 -4 -4 -2 2 6 9 9 9 8 7 6 6 5 4 4 3 3 3 4 4 4 4 4 4 5 5 6 7 7 6 5 3 1 2 3 4 5 5 6 6 7 8 9 10 10 10 10 10 10 8 7 6 5
9 9 10 10 11 11 10 11 10 10 10 10 10 10 9 9 10 9 9 9 9 9 9 9 9 9 8 8 7 7 6 7 6 6 6 6 6 5 5 5 6 6 6 5 4 3 0 0 -0 -0 1 2 5 8 10 10 8 7 5 5 4 4 3 3 3 3 3 4 5 6 6 6 6 6 6 6 7 7 7 7 6 4 3 2 3 3 3 5 5 6 6 6 7 9 10 11 11 10 10 10 8 7 6
9 9 9 10 9 9 9 10 10 10 10 10 10 10 10 10 10 9 9 9 9 10 10 10 10 9 8 8 7 7 7 7 7 6 6 6 7 7 6 6 6 6 4 3 3 2 1 2 2 4 7 9 11 11 10 8 6 4 4 3 3 3 3 4 4 5 6 7 7 8 9 9 8 8 8 7 7 7 7 7 6 5 5 4 3 3 3 3 4 6 7 6 6 6 8 10 11 11 10 10 9 9 7
9 9 8 9 8 8 9 10 10 10 10 10 10 10 10 10 10 10 10 10 10 11 11 11 11 11 10 8 8 8 8 8 8 8 7 7 7 8 7 7 6 5 5 5 4 5 5 7 8 10 12 12 11 10 8 5 4 3 3 3 4 4 5 6 6 7 8 9 10 11 11 11 11 10 9 8 8 7 7 7 6 6 6 5 5 4 4 3 3 4 6 6 6 5 5 7 9 10 11 10 10 10 9
9 8 8 8 8 9 10 10 10 10 10 10 10 10 10 10 10 10 10 10 10 11 11 12 11 10 10 9 9 9 9 10 10 9 8 8 8 8 8 8 7 7 6 6 7 8 10 12 13 13 10 9 8 6 5 4 4 4 5 5 6 7 7 8 9 9 10 11 12 12 12 12 11 11 10 9 8 8 7 7 7 7 7 6 6 5 5 4 3 3 4 5 6 5 4 5 7 9 11 10 10 10 10
9 8 8 8 9 9 10 10 11 11 11 11 11 10 10 9 9 9 9 9 10 11 12 12 11 10 9 9 9 9 9 10 10 9 9 9 8 8 8 8 7 7 7 7 8 9 10 9 9 9 8 7 5 5 4 4 5 6 8 8 9 9 10 10 10 10 10 11 11 11 11 11 11 10 9 9 9 8 8 8 8 8 9 9 8 7 5 5 4 3 3 4 5 5 4 4 5 8 10 10 10 10 10
10 9 9 9 9 9 10 10 11 11 11 11 11 11 11 10 10 10 9 9 10 11 13 13 12 11 9 9 9 9 10 10 10 9 9 9 9 8 8 7 7 8 8 8 8 8 8 8 8 8 7 7 7 6 6 6 8 9 10 10 11 11 11 11 10 10 9 9 9 9 9 9 9 9 9 9 9 9 9 8 7 6 7 8 9 9 7 6 5 4 3 3 4 4 4 3 4 5 8 9 10 10 9
10 10 10 10 9 9 9 10 10 11 11 12 12 12 12 11 11 10 10 10 11 12 13 13 12 11 11 11 11 10 11 11 11 10 9 9 9 9 8 8 9 9 10 9 9 9 9 10 10 10 9 9 9 9 9 9 10 10 11 11 11 11 10 10 9 8 8 7 7 7 7 8 8 8 9 9 9 9 9 9 8 6 5 5 6 8 8 7 5 5 4 3 3 3 3 3 3 3 5 8 9 10 9
9 9 10 10 10 10 9 9 10 10 11 11 12 13 13 12 11 10 10 11 12 13 13 9 8 9 10 11 11 11 11 11 11 11 10 9 9 9 9 10 10 11 11 11 11 11 12 11 11 10 10 9 9 10 10 10 11 11 11 10 10 9 8 8 7 7 6 6 6 6 6 7 8 9 10 10 10 10 10 10 10 9 8 6 5 6 7 7 6 5 4 4 3 2 2 3 3 3 3 5 7 9 9
9 9 10 10 10 10 9 10 10 11 11 11 12 12 12 12 11 11 11 12 12 12 11 7 6 7 8 10 10 11 11 11 11 10 10 10 10 10 11 11 12 12 11 11 11 11 11 10 10 9 9 9 9 9 10 10 10 10 10 9 8 7 6 6 5 5 5 5 5 6 7 8 9 10 10 10 10 10 10 10 10 10 10 9 7 7 7 7 7 6 5 4 3 3 2 2 2 2 2 3 5 7 9
10 10 11 11 11 10 10 10 11 11 11 11 11 11 12 12 12 13 13 14 14 13 12 11 9 9 8 10 10 11 11 11 11 10 10 11 11 11 11 12 12 11 11 11 11 10 10 9 9 9 8 9 9 9 9 9 9 9 8 8 7 6 5 5 4 4 4 5 5 6 7 8 9 9 9 10 9 9 9 9 9 10 10 9 9 8 7 7 7 6 6 5 4 3 2 2 1 1 2 2 4 6 8
11 11 12 12 12 11 11 11 11 11 11 11 11 11 11 12 13 13 14 14 14 14 14 14 13 12 11 11 12 12 11 11 11 11 10 11 11 11 11 11 11 10 10 10 10 9 9 9 9 8 8 8 8 8 8 8 8 8 8 7 7 6 5 5 5 4 5 5 6 7 8 9 9 9 8 8 8 7 7 7 7 8 8 8 8 8 8 8 7 7 6 6 5 4 3 3 2 1 1 2 3 4 7
12 12 12 13 13 12 12 12 11 11 11 11 10 10 10 11 11 12 13 13 13 14 14 14 14 14 13 13 13 13 12 12 12 11 11 10 10 10 10 10 10 10 9 9 9 8 8 8 8 8 8 7 7 7 7 7 7 8 8 7 7 6 6 6 5 5 5 6 7 8 9 10 9 9 8 7 6 6 5 5 5 5 6 6 7 8 8 8 8 7 7 6 6 5 4 4 3 2 2 2 2 3 5
12 11 11 13 13 13 12 12 11 11 11 11 10 10 10 10 10 10 10 11 11 11 12 12 13 13 13 12 12 12 12 12 11 11 11 10 10 10 10 10 10 9 9 8 8 9 9 8 8 7 7 7 7 7 7 7 7 7 7 7 7 7 6 6 6 6 7 7 8 9 10 10 9 9 8 7 6 5 5 4 4 4 4 4 5 6 7 7 8 7 7 7 6 6 5 5 4 4 3 3 3 3 3
11 10 10 11 12 13 12 12 11 11 11 11 10 10 10 10 10 9 9 10 10 10 10 10 11 11 11 11 10 11 11 11 11 10 11 10 10 10 10 10 10 9 9 9 9 9 9 8 7 7 7 7 7 7 7 7 7 7 7 7 6 6 6 6 7 7 8 8 9 10 10 9 9 8 7 7 6 6 5 5 4 4 3 3 3 4 6 7 7 8 8 7 7 7 6 6 6 5 5 4 3 3 3
10 9 8 10 11 12 12 11 11 10 10 10 10 10 10 10 10 9 9 10 10 11 10 10 10 10 10 10 10 10 11 11 10 10 10 10 10 10 10 10 10 10 9 9 9 9 9 8 7 7 7 7 7 7 7 7 7 7 7 7 6 6 6 6 6 7 7 8 9 9 9 8 7 7 6 6 6 6 6 5 5 4 3 3 3 3 4 5 6 7 8 8 8 8 7 7 7 6 6 5 5 4 4
9 8 7 8 10 11 12 11 11 10 10 10 10 10 10 10 10 10 10 10 10 10 10 10 10 10 10 11 12 12 11 11 11 11 11 11 11 11 10 10 10 10 10 9 8 8 8 8 8 8 8 8 8 8 8 8 8 8 7 7 7 6 5 5 6 6 7 7 8 8 7 6 6 6 5 6 6 6 6 6 6 5 5 4 4 4 4 4 5 7 8 8 8 8 8 8 8 7 7 6 5 5 4
9 8 7 7 9 10 11 11 11 10 10 10 10 10 10 10 11 11 10 10 9 9 10 10 10 10 11 12 13 13 12 12 12 11 10 11 12 12 11 10 10 11 11 10 9 8 7 7 8 8 8 8 8 8 8 7 8 8 8 8 7 7 6 6 6 6 6 6 7 7 6 6 6 5 5 5 5 5 5 6 6 6 6 6 6 6 5 5 6 6 7 8 8 9 9 9 8 8 7 7 6 5 4
9 8 7 7 8 9 10 11 11 12 11 11 10 10 10 11 11 11 10 10 10 9 9 10 10 10 10 11 12 12 12 12 11 11 11 11 11 11 12 11 11 10 11 10 9 8 7 7 7 7 7 7 7 7 7 7 7 7 8 8 8 8 7 7 7 6 6 6 6 6 6 6 6 6 5 5 5 5 5 5 6 6 7 8 9 9 9 8 8 7 7 8 8 9 9 9 9 8 8 7 7 6 5
8 7 7 7 7 8 9 11 12 13 13 12 11 10 10 10 11 10 10 10 9 9 8 9 9 8 8 9 10 10 10 10 10 10 13 13 11 9 10 11 11 10 10 10 9 8 7 7 7 7 6 6 6 6 6 6 6 7 7 7 7 7 7 7 7 6 6 6 6 5 5 5 5 5 6 5 5 5 5 5 5 6 7 8 10 11 12 11 11 10 9 8 8 9 9 9 9 9 8 8 7 6 5
7 6 6 7 7 8 9 10 12 14 14 13 11 11 10 10 10 10 10 9 9 8 8 7 7 8 8 8 8 8 9 10 10 11 12 13 12 10 8 8 8 9 9 9 9 9 8 8 7 7 7 6 6 6 6 6 5 5 5 5 5 5 5 5 5 5 6 5 5 5 5 5 5 5 5 5 5 5 5 5 5 6 6 7 9 10 12 13 13 13 11 10 9 9 9 9 9 9 9 8 7 6 6
8 7 7 7 8 9 9 10 12 13 13 12 11 11 11 10 10 10 10 9 9 8 8 7 7 7 9 9 9 9 10 10 12 13 12 11 11 12 11 9 9 9 8 7 7 7 8 8 8 7 7 6 6 6 5 5 5 5 4 4 4 4 4 4 5 5 5 5 5 5 5 5 5 4 4 4 5 5 5 5 5 5 5 6 7 8 10 12 14 15 14 13 11 10 10 10 10 10 9 9 8 6 6
10 9 9 9 10 10 10 10 11 12 13 12 11 10 10 11 10 10 10 10 9 9 10 10 9 8 9 11 11 11 13 12 13 14 15 12 10 10 12 11 10 8 6 5 5 5 6 6 6 6 6 6 5 5 5 5 5 5 4 5 4 4 4 5 5 5 5 5 5 5 5 5 5 5 5 5 5 5 4 4 4 4 5 4 5 5 6 9 12 14 15 15 14 12 11 11 10 10 10 9 8 7 6
12 11 11 12 12 11 11 10 10 11 13 12 11 10 10 11 11 10 10 10 10 11 11 12 12 12 11 13 13 13 12 13 13 13 13 12 10 8 8 8 7 6 6 6 5 5 5 5 4 4 5 5 5 5 5 5 5 5 5 5 5 5 5 5 6 6 6 6 6 6 6 6 6 6 6 6 5 5 5 5 5 4 4 4 4 3 3 5 7 10 13 15 15 14 13 12 11 11 10 10 9 8 6
13 13 13 13 14 13 12 11 10 11 12 12 11 11 11 11 11 10 10 11 12 13 13 14 15 16 15 14 13 12 10 10 9 8 7 7 7 6 5 5 6 6 7 7 7 6 4 4 4 4 4 4 5 5 6 6 6 6 6 6 6 6 6 6 6 6 7 6 6 6 6 6 6 6 6 6 6 6 6 6 5 5 5 4 4 3 2 2 3 5 8 12 14 15 15 13 12 11 11 10 10 9 7
13 13 13 14 14 14 13 12 11 11 11 12 11 11 11 10 10 10 11 13 14 15 15 14 14 15 14 12 11 10 8 7 5 3 2 2 3 3 3 4 4 5 5 6 6 6 5 5 5 6 6 5 5 6 6 6 6 7 7 7 7 7 7 7 7 7 6 6 6 6 6 5 6 6 6 6 6 6 6 6 6 6 5 5 4 4 3 2 2 2 4 7 10 13 14 14 14 13 11 11 11 10 9
14 13 13 13 14 14 14 13 12 12 12 12 11 10 9 9 9 10 11 13 13 13 12 12 11 11 11 9 8 6 5 4 3 2 2 2 3 3 4 5 5 5 4 4 5 5 6 6 7 8 8 6 6 7 7 8 8 8 8 8 8 7 7 7 7 6 6 6 6 5 5 5 5 5 5 5 5 5 5 5 5 5 5 5 5 4 4 3 2 2 2 3 5 8 11 13 14 14 13 12 12 11 10
15 14 14 14 14 14 14 13 12 12 12 12 11 10 9 8 8 8 8 9 8 8 7 7 8 8 7 6 5 5 5 5 6 6 6 6 7 7 7 6 7 7 7 7 7 7 7 8 8 8 9 9 8 7 8 8 9 8 8 7 7 6 6 6 6 6 5 5 5 5 5 5 5 4 5 5 5 5 5 5 5 5 5 5 5 5 5 4 3 3 2 2 3 4 7 9 12 13 14 14 13 12 12
15 15 15 15 16 16 14 12 11 10 10 10 10 9 8 7 6 6 5 5 5 4 4 5 5 5 5 6 6 7 8 9 10 10 10 10 9 8 8 7 7 7 8 8 9 9 9 9 9 9 9 10 9 7 6 6 6 7 6 6 6 5 5 5 5 5 4 4 4 4 5 5 4 4 4 5 5 5 5 5 5 5 5 5 5 5 5 5 4 4 3 3 2 3 4 6 8 11 13 14 14 14 13
13 14 14 15 16 16 15 12 9 8 7 7 7 7 6 6 5 5 5 5 5 5 4 5 5 6 7 8 9 10 11 11 11 11 11 10 9 8 7 7 7 7 7 8 8 8 8 8 8 8 7 8 8 8 6 5 4 4 5 5 5 4 4 4 4 4 4 4 4 4 4 4 4 4 4 3 3 3 4 4 4 4 4 4 5 5 5 5 5 5 4 4 3 3 3 4 6 8 10 12 13 14 14
11 11 11 13 14 15 16 13 10 7 5 4 4 4 5 5 6 6 7 6 6 5 6 7 8 9 11 11 11 11 11 10 10 10 9 8 8 8 7 7 7 8 8 8 8 8 7 7 7 6 6 5 5 6 6 5 4 3 3 3 3 4 4 4 4 4 4 4 4 3 3 3 3 3 3 3 2 2 2 2 2 2 3 3 3 4 4 4 5 5 5 4 4 4 4 4 4 5 7 9 11 13 14
Height
5844 5844 5844 5844 5843 5843 5843 5843 5843 5843 5843 5843 5843 5843 5843 5843 5843 5842 5842 5842 5842 5842 5842 5841 5841 5841 5842 5842 5842 5842 5842 5841 5841 5841 5843 5843 5842 5841 5840 5840 5840 5840 5840 5840 5840 5840 5840 5840 5840 5840 5840 5840 5840 5840 5840 5840 5840 5840 5840 5840 5840 5840 5841 5841 5841 5842 5842 5842 5842 5842 5842 5842 5842 5842 5843 5843 5843 5843 5843 5844 5844 5845 5845 5846 5846 5847 5847 5848 5848 5849 5850 5850 5851 5851 5852 5853 5853 5854 5855 5856 5856 5857 5857
5842 5842 5842 5842 5842 5842 5842 5842 5841 5841 5841 5841 5841 5841 5841 5841 5841 5841 5841 5840 5840 5840 5840 5840 5840 5840 5840 5841 5841 5841 5840 5840 5840 5841 5843 5840 5839 5839 5839 5839 5839 5839 5839 5839 5839 5839 5839 5839 5839 5839 5838 5838 5838 5838 5838 5838 5838 5839 5839 5839 5839 5839 5840 5840 5840 5840 5841 5841 5841 5841 5841 5841 5841 5841 5842 5842 5842 5842 5842 5843 5843 5843 5844 5844 5845 5845 5846 5847 5847 5848 5848 5849 5849 5849 5850 5851 5852 5853 5853 5854 5854 5855 5856
5840 5840 5840 5840 5840 5840 5840 5840 5840 5840 5840 5840 5840 5840 5840 5840 5839 5839 5839 5839 5839 5839 5839 5838 5839 5839 5839 5839 5839 5839 5839 5839 5839 5839 5839 5838 5838 5838 5838 5838 5838 5838 5838 5838 5838 5838 5838 5838 5838 5838 5838 5838 5838 5838 5838 5838 5838 5838 5838 5838 5838 5838 5838 5839 5839 5839 5840 5840 5840 5840 5840 5840 5840 5840 5840 5841 5841 5841 5841 5842 5842 5842 5843 5843 5843 5844 5845 5845 5846 5846 5847 5847 5848 5848 5848 5849 5850 5851 5852 5852 5853 5853 5854
5838 5838 5838 5838 5838 5838 5838 5838 5838 5838 5838 5838 5838 5838 5838 5838 5838 5838 5837 5838 5838 5837 5837 5837 5838 5838 5838 5838 5838 5838 5838 5838 5838 5838 5838 5838 5837 5837 5837 5837 5837 5837 5837 5837 5836 5836 5836 5836 5836 5836 5836 5836 5836 5837 5837 5837 5837 5837 5837 5837 5837 5837 5837 5838 5838 5838 5838 5839 5839 5839 5839 5839 5839 5839 5840 5840 5840 5840 5840 5840 5841 5841 5842 5842 5842 5843 5843 5844 5844 5845 5845 5846 5846 5847 5847 5848 5848 5849 5850 5851 5851 5852 5853
5837 5837 5837 5837 5837 5837 5837 5837 5837 5837 5837 5837 5837 5837 5837 5837 5837 5837 5837 5838 5837 5835 5835 5837 5838 5838 5837 5837 5837 5837 5837 5837 5836 5836 5836 5836 5836 5836 5836 5836 5836 5836 5835 5835 5835 5835 5835 5835 5835 5835 5835 5835 5835 5835 5835 5835 5836 5836 5836 5836 5836 5836 5836 5836 5837 5837 5837 5838 5838 5838 5838 5838 5838 5838 5839 5839 5839 5839 5839 5839 5839 5840 5840 5841 5841 5841 5842 5842 5843 5843 5843 5844 5844 5845 5846 5846 5847 5847 5848 5849 5849 5850 5851
5835 5835 5835 5835 5835 5835 5835 5835 5835 5835 5835 5835 5835 5835 5835 5835 5835 5835 5835 5835 5835 5834 5834 5837 5837 5836 5836 5836 5835 5835 5835 5835 5835 5835 5835 5835 5835 5835 5835 5835 5835 5834 5834 5834 5834 5834 5834 5834 5834 5834 5834 5834 5834 5834 5834 5834 5834 5835 5835 5835 5835 5835 5835 5835 5836 5836 5836 5837 5837 5837 5837 5837 5837 5838 5838 5838 5838 5838 5838 5838 5838 5839 5839 5839 5840 5840 5840 5841 5841 5842 5842 5843 5843 5843 5844 5845 5845 5846 5846 5847 5848 5848 5849
5833 5833 5833 5833 5833 5833 5833 5833 5833 5833 5833 5833 5833 5833 5833 5833 5833 5833 5833 5833 5833 5833 5835 5834 5834 5834 5834 5834 5834 5834 5834 5833 5833 5833 5833 5833 5833 5834 5834 5834 5833 5833 5833 5833 5833 5833 5833 5833 5833 5833 5833 5833 5833 5833 5833 5833 5833 5833 5834 5834 5834 5834 5834 5834 5835 5835 5835 5835 5836 5836 5836 5836 5836 5836 5837 5837 5837 5837 5837 5837 5837 5838 5838 5838 5838 5838 5839 5839 5839 5840 5840 5841 5841 5842 5843 5843 5843 5844 5845 5845 5846 5847 5847
5832 5832 5831 5831 5831 5832 5832 5832 5831 5831 5831 5832 5832 5832 5832 5832 5832 5832 5832 5832 5832 5832 5831 5832 5833 5833 5833 5833 5833 5833 5832 5832 5832 5831 5832 5832 5832 5832 5832 5832 5832 5832 5832 5831 5831 5831 5831 5831 5831 5831 5831 5831 5831 5831 5832 5832 5832 5832 5833 5833 5833 5833 5833 5833 5833 5834 5834 5834 5834 5835 5835 5835 5835 5835 5836 5836 5836 5836 5836 5836 5836 5836 5837 5837 5837 5837 5838 5838 5838 5838 5839 5839 5840 5840 5841 5841 5842 5843 5843 5843 5844 5845 5845
5830 5830 5830 5830 5830 5830 5830 5830 5830 5830 5830 5830 5830 5830 5830 5831 5830 5830 5830 5830 5830 5830 5831 5831 5831 5831 5831 5831 5831 5831 5831 5830 5830 5830 5830 5830 5831 5831 5830 5830 5830 5830 5830 5830 5830 5830 5829 5830 5830 5830 5830 5830 5830 5830 5830 5830 5831 5831 5831 5831 5832 5832 5832 5832 5833 5833 5833 5833 5833 5833 5834 5834 5834 5834 5834 5834 5835 5835 5835 5835 5835 5835 5835 5835 5836 5836 5836 5836 5837 5837 5838 5838 5838 5839 5839 5840 5840 5841 5841 5842 5842 5843 5843
5829 5828 5828 5828 5828 5828 5828 5828 5828 5828 5828 5828 5828 5828 5828 5829 5829 5829 5829 5829 5829 5829 5829 5829 5829 5830 5830 5830 5829 5829 5829 5828 5829 5830 5830 5829 5829 5829 5829 5828 5828 5828 5828 5828 5828 5828 5828 5828 5828 5828 5828 5828 5828 5828 5829 5829 5829 5829 5830 5830 5830 5831 5831 5831 5831 5832 5832 5832 5832 5833 5833 5833 5833 5833 5833 5833 5833 5833 5833 5833 5834 5834 5834 5834 5834 5835 5835 5835 5835 5836 5836 5836 5837 5837 5838 5838 5839 5839 5840 5840 5841 5841 5842
5827 5826 5827 5827 5827 5826 5826 5826 5826 5827 5827 5827 5827 5827 5827 5827 5827 5827 5827 5827 5827 5827 5828 5828 5828 5828 5828 5828 5828 5828 5828 5829 5829 5829 5828 5828 5828 5827 5827 5827 5827 5827 5827 5827 5827 5827 5827 5827 5827 5827 5827 5827 5827 5827 5828 5828 5828 5828 5828 5828 5829 5829 5829 5830 5830 5830 5830 5831 5831 5831 5831 5832 5832 5832 5832 5832 5832 5832 5832 5832 5833 5833 5833 5833 5833 5833 5834 5834 5834 5834 5834 5835 5835 5836 5836 5837 5837 5838 5838 5838 5839 5839 5840
5825 5825 5825 5826 5825 5825 5825 5825 5825 5825 5825 5825 5825 5825 5825 5825 5826 5826 5826 5826 5826 5826 5826 5826 5826 5826 5826 5826 5826 5826 5827 5827 5827 5827 5825 5825 5826 5825 5825 5827 5827 5826 5825 5825 5825 5825 5825 5825 5825 5825 5825 5825 5825 5826 5826 5826 5826 5827 5827 5827 5827 5828 5828 5828 5829 5829 5829 5829 5830 5830 5830 5830 5831 5831 5831 5831 5831 5831 5831 5831 5831 5832 5832 5832 5832 5832 5833 5833 5833 5833 5833 5833 5834 5834 5834 5835 5835 5836 5836 5837 5837 5838 5838
5823 5823 5823 5823 5823 5823 5823 5823 5823 5823 5823 5823 5823 5824 5824 5824 5824 5824 5824 5824 5824 5824 5824 5824 5824 5824 5824 5824 5824 5824 5825 5824 5824 5825 5823 5823 5823 5824 5824 5824 5825 5825 5823 5823 5823 5823 5823 5823 5823 5824 5824 5824 5824 5824 5824 5824 5825 5825 5825 5826 5826 5826 5827 5827 5827 5828 5828 5828 5828 5828 5829 5829 5829 5829 5829 5830 5830 5830 5830 5830 5830 5830 5830 5831 5831 5831 5831 5832 5832 5832 5832 5832 5833 5833 5833 5833 5834 5834 5835 5835 5836 5836 5837
5822 5821 5821 5821 5821 5822 5822 5822 5822 5821 5822 5822 5822 5822 5822 5822 5822 5823 5823 5823 5823 5823 5823 5823 5822 5822 5822 5822 5822 5823 5823 5822 5822 5823 5823 5821 5822 5823 5822 5821 5822 5823 5822 5822 5822 5822 5822 5822 5822 5822 5822 5822 5822 5822 5823 5823 5823 5823 5824 5824 5824 5824 5825 5825 5826 5826 5826 5826 5827 5827 5827 5828 5828 5828 5828 5828 5828 5828 5828 5828 5829 5829 5829 5829 5830 5830 5830 5830 5831 5831 5831 5831 5831 5832 5832 5832 5833 5833 5833 5834 5834 5835 5835
5819 5820 5820 5820 5820 5819 5819 5820 5820 5820 5820 5820 5820 5820 5820 5821 5821 5821 5821 5821 5821 5821 5821 5821 5821 5820 5820 5821 5820 5820 5820 5820 5820 5820 5822 5821 5821 5821 5821 5819 5820 5821 5821 5821 5821 5821 5820 5820 5820 5820 5821 5821 5821 5821 5821 5821 5821 5822 5822 5822 5823 5823 5823 5824 5824 5824 5825 5825 5825 5825 5826 5826 5826 5826 5827 5827 5827 5827 5827 5827 5828 5828 5828 5828 5828 5829 5829 5829 5829 5829 5830 5830 5830 5830 5831 5831 5831 5832 5832 5832 5833 5833 5834
5818 5818 5818 5818 5818 5818 5818 5818 5819 5819 5819 5818 5818 5818 5818 5819 5819 5819 5819 5819 5819 5819 5819 5819 5819 5819 5818 5820 5819 5818 5818 5818 5818 5818 5818 5818 5819 5820 5819 5818 5818 5818 5819 5819 5819 5819 5819 5819 5819 5819 5819 5819 5819 5819 5819 5819 5819 5820 5820 5820 5821 5821 5822 5822 5822 5823 5823 5823 5823 5823 5824 5824 5825 5825 5825 5825 5825 5825 5826 5826 5826 5826 5827 5827 5827 5827 5828 5828 5828 5828 5828 5829 5829 5829 5829 5829 5830 5830 5831 5831 5831 5832 5832
5816 5816 5816 5816 5816 5816 5816 5816 5817 5817 5817 5817 5816 5816 5817 5817 5817 5817 5817 5817 5817 5817 5817 5817 5817 5817 5817 5818 5817 5816 5817 5817 5816 5816 5815 5815 5816 5817 5817 5817 5817 5817 5817 5818 5818 5818 5817 5817 5817 5817 5818 5817 5817 5817 5817 5817 5818 5818 5818 5818 5819 5819 5820 5820 5820 5821 5821 5821 5822 5822 5822 5822 5823 5824 5823 5823 5823 5823 5824 5824 5824 5825 5825 5825 5826 5826 5826 5826 5827 5827 5827 5827 5828 5828 5828 5828 5828 5829 5829 5829 5830 5830 5830
5814 5814 5814 5814 5814 5814 5814 5814 5814 5814 5815 5814 5814 5814 5814 5815 5815 5815 5815 5815 5815 5815 5815 5815 5815 5815 5815 5815 5814 5814 5814 5814 5814 5814 5814 5813 5813 5813 5815 5815 5815 5814 5815 5815 5816 5816 5816 5816 5816 5816 5816 5816 5816 5815 5815 5815 5816 5816 5816 5816 5817 5817 5818 5818 5818 5819 5819 5820 5820 5820 5820 5821 5821 5821 5821 5821 5821 5822 5822 5823 5823 5823 5823 5824 5824 5824 5824 5825 5825 5825 5826 5826 5826 5826 5827 5827 5827 5828 5828 5828 5828 5828 5829
5812 5812 5812 5812 5812 5812 5812 5812 5812 5812 5812 5812 5812 5812 5812 5813 5813 5813 5813 5813 5813 5813 5813 5813 5813 5813 5813 5813 5813 5812 5812 5812 5812 5812 5812 5811 5811 5810 5811 5812 5811 5811 5812 5813 5813 5813 5814 5814 5814 5814 5814 5814 5814 5814 5813 5813 5813 5814 5814 5814 5815 5815 5815 5816 5817 5817 5818 5819 5819 5819 5819 5819 5818 5818 5819 5819 5819 5820 5820 5821 5821 5821 5822 5822 5822 5823 5823 5823 5823 5824 5824 5824 5824 5825 5825 5825 5826 5826 5826 5827 5827 5827 5827
5809 5809 5809 5809 5809 5810 5810 5810 5810 5810 5809 5809 5810 5810 5810 5810 5810 5810 5810 5810 5810 5810 5811 5811 5811 5811 5811 5811 5811 5810 5810 5810 5810 5809 5809 5809 5808 5808 5807 5807 5808 5809 5810 5810 5810 5811 5812 5812 5812 5812 5812 5812 5812 5812 5812 5812 5812 5812 5812 5813 5813 5813 5813 5814 5814 5815 5816 5817 5817 5817 5816 5816 5817 5817 5817 5817 5818 5818 5818 5818 5819 5819 5820 5820 5820 5821 5821 5822 5822 5822 5823 5823 5823 5823 5823 5824 5824 5824 5825 5825 5825 5826 5826
5808 5808 5807 5807 5807 5807 5807 5807 5807 5807 5807 5807 5807 5807 5807 5808 5808 5808 5808 5808 5808 5808 5808 5808 5808 5808 5808 5808 5808 5808 5808 5808 5808 5808 5807 5807 5806 5806 5805 5804 5804 5806 5808 5807 5807 5808 5809 5809 5809 5809 5810 5810 5810 5810 5810 5810 5810 5810 5810 5810 5811 5811 5811 5812 5812 5813 5813 5814 5814 5814 5814 5814 5815 5815 5815 5815 5816 5816 5816 5816 5817 5817 5818 5818 5818 5819 5819 5820 5820 5820 5821 5821 5821 5822 5822 5822 5822 5823 5823 5823 5824 5824 5824
5805 5805 5805 5805 5805 5805 5805 5805 5805 5805 5804 5804 5804 5804 5805 5805 5805 5805 5805 5805 5805 5805 5805 5805 5806 5806 5806 5806 5806 5806 5806 5805 5805 5805 5805 5804 5804 5804 5803 5802 5802 5803 5805 5804 5804 5805 5806 5806 5807 5807 5807 5808 5808 5808 5808 5808 5808 5808 5808 5808 5808 5809 5809 5809 5810 5810 5811 5811 5812 5812 5813 5813 5813 5813 5813 5813 5813 5814 5814 5814 5814 5815 5815 5816 5816 5817 5817 5818 5818 5818 5819 5819 5820 5820 5820 5820 5821 5821 5821 5822 5822 5822 5823
5803 5803 5803 5803 5803 5803 5803 5802 5802 5802 5802 5802 5802 5802 5802 5802 5802 5802 5802 5802 5802 5803 5803 5803 5803 5803 5803 5803 5803 5803 5803 5803 5803 5802 5802 5803 5803 5801 5801 5800 5799 5800 5802 5802 5802 5803 5803 5803 5803 5804 5804 5805 5805 5805 5806 5806 5806 5806 5806 5806 5806 5807 5807 5807 5808 5808 5808 5809 5810 5811 5811 5812 5811 5811 5811 5811 5811 5812 5812 5812 5812 5812 5813 5813 5814 5814 5815 5815 5816 5817 5817 5818 5818 5818 5818 5819 5819 5819 5820 5820 5820 5821 5821
5800 5800 5800 5800 5800 5800 5800 5800 5800 5799 5799 5799 5799 5799 5799 5799 5799 5799 5799 5799 5799 5799 5799 5800 5800 5800 5800 5800 5800 5800 5800 5800 5800 5799 5800 5801 5800 5799 5799 5798 5798 5798 5799 5799 5799 5799 5800 5800 5801 5801 5801 5802 5803 5803 5803 5803 5803 5803 5803 5804 5804 5804 5805 5805 5805 5806 5806 5807 5808 5809 5810 5810 5810 5809 5810 5810 5810 5809 5809 5810 5810 5810 5810 5811 5812 5812 5813 5813 5814 5814 5815 5815 5816 5816 5817 5817 5817 5818 5818 5818 5818 5819 5819
5798 5798 5798 5798 5797 5797 5797 5797 5797 5797 5796 5796 5796 5796 5796 5796 5795 5795 5796 5796 5796 5796 5796 5797 5797 5797 5797 5797 5797 5798 5798 5798 5797 5797 5797 5797 5797 5797 5796 5796 5796 5795 5795 5797 5798 5797 5798 5798 5798 5798 5799 5799 5800 5800 5800 5801 5801 5801 5801 5801 5802 5802 5802 5803 5803 5803 5803 5804 5805 5805 5806 5807 5807 5808 5808 5808 5808 5808 5807 5807 5808 5808 5808 5809 5809 5810 5810 5811 5812 5812 5813 5813 5814 5814 5815 5815 5816 5816 5816 5816 5817 5817 5818
5795 5795 5794 5794 5794 5794 5794 5794 5794 5794 5793 5793 5793 5793 5793 5792 5792 5792 5792 5793 5793 5793 5793 5793 5793 5793 5794 5794 5794 5794 5794 5794 5794 5794 5794 5794 5794 5794 5794 5794 5793 5793 5795 5795 5795 5794 5794 5795 5795 5795 5796 5796 5797 5797 5798 5798 5798 5798 5798 5799 5799 5799 5800 5800 5800 5801 5801 5802 5802 5803 5803 5804 5804 5805 5805 5806 5806 5806 5805 5805 5806 5806 5806 5807 5807 5808 5808 5808 5809 5810 5811 5811 5812 5812 5813 5813 5813 5814 5814 5814 5815 5815 5816
5791 5791 5791 5791 5791 5791 5791 5791 5791 5791 5790 5790 5790 5790 5790 5789 5789 5789 5789 5789 5789 5789 5789 5789 5790 5790 5790 5791 5791 5791 5791 5791 5791 5791 5791 5792 5792 5792 5791 5791 5791 5791 5792 5791 5790 5790 5791 5792 5792 5792 5793 5793 5794 5794 5795 5795 5795 5796 5796 5796 5796 5797 5797 5798 5798 5798 5799 5799 5799 5800 5801 5801 5802 5803 5803 5803 5804 5804 5803 5803 5804 5804 5804 5805 5805 5805 5806 5806 5807 5807 5808 5808 5809 5810 5810 5811 5812 5812 5813 5813 5813 5813 5814
5787 5787 5788 5788 5788 5788 5788 5788 5788 5788 5787 5787 5787 5787 5787 5786 5786 5786 5786 5786 5785 5785 5785 5786 5786 5787 5787 5787 5788 5788 5788 5788 5788 5788 5788 5788 5788 5788 5788 5788 5788 5788 5788 5787 5787 5787 5788 5788 5789 5789 5790 5791 5791 5792 5792 5793 5793 5793 5793 5793 5793 5794 5794 5795 5795 5796 5796 5797 5797 5798 5798 5799 5799 5800 5800 5801 5801 5801 5801 5801 5802 5803 5803 5803 5804 5804 5804 5804 5804 5805 5805 5806 5806 5807 5808 5809 5809 5810 5811 5811 5811 5812 5812
5783 5783 5783 5784 5784 5784 5784 5784 5784 5784 5784 5784 5784 5783 5783 5783 5783 5783 5783 5782 5782 5782 5782 5782 5783 5783 5783 5783 5784 5784 5784 5784 5784 5785 5785 5785 5785 5785 5785 5785 5785 5785 5785 5784 5785 5784 5782 5783 5786 5787 5787 5788 5789 5790 5790 5790 5790 5790 5790 5790 5791 5792 5792 5792 5793 5793 5794 5794 5795 5795 5796 5796 5797 5797 5798 5798 5799 5799 5799 5799 5799 5800 5801 5801 5802 5802 5802 5802 5802 5803 5803 5803 5804 5805 5806 5807 5808 5808 5808 5809 5809 5810 5810
5780 5780 5780 5780 5780 5780 5780 5780 5780 5780 5780 5780 5780 5780 5780 5780 5779 5779 5779 5779 5779 5778 5778 5778 5779 5779 5779 5780 5780 5780 5781 5781 5781 5782 5782 5782 5782 5782 5782 5782 5782 5782 5782 5782 5783 5785 5786 5784 5783 5784 5785 5785 5786 5787 5787 5787 5787 5787 5787 5788 5788 5789 5789 5790 5790 5791 5791 5792 5793 5793 5793 5794 5794 5795 5795 5796 5796 5797 5797 5797 5798 5798 5798 5798 5799 5799 5799 5800 5800 5800 5801 5801 5802 5803 5803 5804 5805 5806 5807 5807 5808 5808 5808
5776 5776 5776 5776 5776 5776 5776 5776 5776 5776 5776 5776 5776 5776 5776 5776 5776 5776 5776 5775 5775 5775 5775 5775 5775 5775 5776 5776 5776 5777 5777 5777 5778 5778 5778 5778 5778 5778 5778 5778 5778 5778 5778 5779 5780 5782 5784 5784 5782 5780 5781 5782 5783 5784 5784 5784 5784 5784 5784 5785 5786 5786 5787 5787 5788 5788 5789 5789 5790 5791 5791 5791 5792 5792 5793 5793 5794 5794 5795 5795 5795 5796 5796 5796 5797 5797 5798 5798 5798 5798 5798 5799 5800 5800 5801 5802 5803 5804 5804 5805 5806 5806 5807
5772 5772 5772 5772 5772 5772 5772 5772 5772 5772 5772 5772 5772 5772 5773 5773 5773 5772 5772 5772 5772 5772 5772 5772 5772 5772 5772 5772 5772 5773 5773 5773 5774 5774 5775 5775 5775 5775 5775 5775 5775 5775 5776 5776 5776 5776 5776 5777 5778 5777 5778 5778 5779 5780 5781 5781 5781 5781 5782 5782 5783 5783 5784 5784 5785 5786 5786 5787 5788 5788 5788 5789 5789 5789 5790 5790 5791 5792 5792 5793 5793 5793 5794 5794 5794 5795 5795 5796 5796 5796 5796 5797 5797 5798 5799 5800 5801 5801 5802 5803 5803 5804 5805
5768 5768 5768 5768 5768 5768 5768 5768 5768 5768 5768 5768 5768 5768 5769 5769 5768 5768 5768 5768 5768 5768 5768 5768 5768 5768 5768 5768 5768 5769 5769 5770 5770 5771 5771 5771 5771 5771 5772 5773 5773 5772 5773 5772 5772 5772 5772 5772 5772 5773 5774 5775 5776 5777 5778 5778 5778 5778 5779 5779 5780 5780 5781 5782 5782 5783 5783 5784 5785 5785 5786 5786 5787 5787 5787 5788 5788 5789 5790 5790 5791 5791 5791 5792 5792 5793 5793 5793 5794 5794 5794 5795 5795 5796 5797 5798 5798 5799 5800 5800 5801 5802 5803
5765 5764 5764 5764 5764 5764 5764 5764 5764 5764 5764 5764 5764 5765 5765 5765 5765 5765 5764 5764 5764 5764 5764 5764 5764 5764 5764 5763 5764 5765 5766 5766 5767 5767 5767 5768 5768 5768 5768 5769 5769 5768 5768 5768 5768 5768 5768 5768 5768 5769 5770 5772 5773 5773 5774 5775 5775 5776 5776 5776 5777 5777 5778 5778 5779 5780 5780 5781 5782 5782 5783 5783 5784 5784 5785 5785 5786 5787 5787 5788 5788 5789 5789 5790 5790 5790 5791 5791 5792 5792 5792 5793 5793 5793 5794 5795 5796 5797 5798 5798 5799 5799 5800
5760 5760 5760 5760 5760 5760 5760 5760 5760 5760 5760 5760 5761 5761 5761 5761 5761 5761 5761 5761 5761 5761 5761 5761 5760 5760 5759 5760 5760 5761 5762 5762 5763 5763 5763 5764 5764 5764 5764 5764 5765 5765 5765 5765 5765 5764 5764 5765 5765 5766 5767 5768 5769 5770 5771 5772 5772 5773 5773 5773 5773 5774 5775 5775 5776 5776 5777 5778 5778 5779 5780 5781 5781 5782 5782 5783 5783 5784 5785 5785 5786 5786 5787 5787 5788 5788 5788 5789 5789 5790 5790 5790 5791 5791 5792 5793 5794 5794 5795 5796 5797 5797 5798
5756 5756 5756 5756 5756 5756 5756 5756 5756 5756 5756 5756 5756 5757 5757 5757 5757 5757 5757 5758 5757 5757 5757 5757 5756 5756 5756 5756 5757 5758 5758 5758 5759 5759 5760 5760 5760 5760 5761 5761 5761 5762 5762 5761 5761 5761 5761 5762 5763 5763 5764 5765 5766 5767 5768 5768 5769 5769 5770 5770 5770 5771 5771 5772 5773 5773 5773 5774 5775 5776 5777 5778 5778 5779 5779 5780 5781 5781 5782 5783 5784 5785 5785 5785 5785 5785 5786 5786 5787 5787 5788 5788 5788 5789 5790 5790 5791 5792 5793 5794 5794 5795 5796
5752 5752 5752 5752 5752 5752 5752 5752 5752 5752 5752 5752 5752 5753 5753 5753 5753 5753 5753 5754 5754 5753 5753 5752 5752 5752 5752 5753 5753 5754 5754 5755 5755 5755 5756 5756 5756 5756 5757 5757 5758 5758 5758 5758 5758 5758 5758 5760 5760 5760 5761 5762 5763 5764 5764 5765 5766 5766 5766 5767 5767 5768 5768 5769 5769 5770 5770 5771 5772 5773 5773 5774 5775 5776 5777 5777 5778 5778 5779 5780 5781 5782 5782 5783 5783 5783 5783 5784 5784 5785 5785 5786 5786 5787 5787 5788 5788 5789 5790 5791 5792 5793 5793
5748 5748 5748 5748 5748 5748 5748 5748 5748 5748 5748 5748 5748 5748 5749 5748 5748 5748 5749 5750 5750 5750 5749 5748 5748 5748 5748 5748 5749 5750 5750 5751 5751 5751 5752 5752 5752 5753 5753 5753 5754 5754 5755 5754 5754 5754 5755 5755 5756 5756 5757 5758 5759 5760 5761 5762 5762 5763 5763 5763 5764 5764 5765 5765 5766 5767 5767 5768 5768 5769 5770 5771 5772 5773 5773 5774 5775 5776 5776 5777 5778 5778 5778 5780 5780 5780 5780 5781 5782 5782 5783 5783 5783 5784 5785 5786 5786 5787 5788 5789 5790 5790 5791
5745 5744 5744 5744 5744 5744 5744 5744 5744 5744 5744 5744 5744 5745 5745 5744 5744 5744 5745 5746 5746 5746 5745 5743 5743 5744 5745 5745 5746 5746 5747 5747 5748 5748 5748 5748 5749 5749 5749 5750 5750 5751 5751 5751 5751 5751 5752 5752 5752 5753 5753 5754 5755 5756 5757 5758 5758 5758 5759 5760 5760 5761 5761 5762 5763 5763 5763 5764 5765 5766 5766 5768 5768 5769 5770 5771 5772 5773 5773 5774 5774 5775 5775 5776 5776 5777 5778 5778 5779 5779 5780 5781 5781 5782 5782 5783 5784 5784 5785 5786 5787 5788 5788
5741 5741 5740 5740 5740 5740 5740 5740 5741 5740 5740 5740 5740 5741 5741 5741 5740 5741 5741 5742 5742 5742 5741 5740 5740 5740 5741 5741 5742 5742 5743 5743 5743 5744 5744 5745 5745 5745 5746 5746 5747 5747 5747 5748 5748 5748 5748 5748 5748 5748 5749 5750 5751 5752 5753 5753 5754 5755 5755 5756 5757 5757 5758 5758 5759 5759 5760 5761 5761 5762 5763 5764 5765 5765 5766 5767 5768 5769 5769 5770 5771 5771 5772 5773 5773 5774 5774 5775 5776 5776 5777 5778 5778 5779 5780 5780 5781 5782 5783 5783 5784 5785 5786
5737 5737 5737 5736 5736 5736 5736 5737 5737 5737 5736 5736 5736 5737 5737 5737 5737 5737 5737 5738 5738 5737 5737 5737 5737 5737 5737 5738 5738 5738 5739 5739 5740 5740 5741 5741 5741 5742 5742 5742 5743 5743 5743 5744 5744 5744 5744 5744 5744 5745 5745 5746 5747 5748 5748 5749 5750 5751 5751 5752 5753 5753 5754 5755 5755 5756 5757 5757 5758 5758 5759 5760 5761 5762 5763 5763 5764 5765 5766 5766 5767 5768 5768 5769 5770 5770 5771 5772 5772 5773 5774 5775 5775 5776 5777 5778 5778 5779 5780 5781 5782 5783 5783
5733 5733 5733 5733 5732 5732 5733 5733 5733 5733 5733 5733 5732 5732 5732 5732 5733 5733 5733 5733 5733 5733 5733 5733 5733 5733 5733 5734 5734 5735 5735 5736 5736 5737 5737 5737 5738 5738 5738 5738 5739 5739 5740 5740 5740 5740 5741 5741 5741 5741 5742 5743 5743 5744 5744 5745 5746 5747 5748 5748 5749 5750 5751 5751 5752 5753 5753 5753 5754 5755 5756 5756 5757 5758 5759 5760 5760 5761 5762 5763 5763 5764 5765 5765 5766 5767 5768 5768 5769 5770 5771 5771 5772 5773 5774 5775 5776 5776 5777 5778 5779 5780 5781
5728 5728 5728 5728 5728 5728 5729 5729 5729 5729 5728 5728 5728 5728 5728 5728 5728 5729 5729 5729 5729 5729 5729 5729 5728 5728 5729 5730 5731 5731 5732 5732 5733 5733 5733 5733 5733 5734 5734 5734 5735 5735 5736 5736 5736 5736 5737 5737 5737 5738 5738 5739 5739 5740 5740 5741 5742 5743 5744 5745 5745 5746 5747 5748 5748 5749 5749 5750 5751 5751 5752 5753 5753 5754 5755 5756 5757 5758 5758 5759 5760 5760 5761 5762 5763 5763 5764 5765 5765 5766 5767 5768 5769 5770 5771 5772 5773 5773 5774 5775 5776 5777 5778
5724 5724 5724 5724 5724 5724 5725 5725 5725 5724 5724 5724 5724 5724 5724 5724 5724 5725 5725 5725 5725 5726 5726 5725 5725 5725 5725 5726 5727 5727 5728 5728 5728 5729 5729 5729 5729 5730 5730 5731 5731 5731 5732 5732 5732 5733 5733 5733 5733 5734 5734 5735 5735 5736 5737 5738 5738 5739 5740 5741 5742 5742 5743 5744 5744 5745 5746 5746 5747 5748 5748 5749 5750 5751 5752 5752 5753 5754 5755 5756 5756 5757 5758 5758 5759 5760 5760 5761 5762 5763 5763 5764 5765 5766 5767 5768 5769 5770 5771 5772 5773 5773 5774
5719 5720 5720 5720 5720 5720 5720 5720 5721 5721 5721 5720 5720 5720 5720 5720 5720 5720 5720 5721 5721 5721 5722 5721 5721 5721 5722 5722 5723 5723 5724 5724 5724 5725 5725 5725 5726 5726 5727 5727 5727 5728 5728 5728 5728 5729 5729 5729 5730 5730 5731 5731 5732 5733 5733 5734 5735 5735 5736 5737 5738 5738 5739 5740 5741 5741 5742 5743 5743 5744 5745 5746 5746 5747 5748 5749 5749 5750 5751 5752 5753 5753 5754 5755 5755 5756 5757 5758 5758 5759 5760 5760 5761 5763 5763 5764 5766 5767 5768 5768 5769 5770 5771
5715 5715 5715 5716 5716 5716 5716 5716 5716 5716 5716 5716 5716 5716 5716 5716 5716 5716 5717 5717 5718 5718 5718 5718 5718 5718 5718 5718 5719 5719 5720 5720 5720 5721 5722 5722 5722 5723 5723 5723 5723 5724 5724 5724 5725 5725 5726 5726 5726 5727 5727 5728 5728 5729 5730 5730 5731 5732 5733 5733 5734 5735 5735 5736 5737 5738 5738 5739 5740 5741 5741 5742 5743 5743 5744 5745 5746 5746 5747 5748 5749 5750 5750 5751 5752 5753 5753 5754 5754 5755 5756 5757 5758 5758 5759 5761 5762 5763 5764 5765 5766 5767 5768
5711 5711 5711 5711 5711 5712 5712 5712 5712 5712 5712 5712 5712 5712 5713 5713 5713 5713 5713 5713 5714 5714 5714 5714 5714 5715 5715 5715 5715 5716 5716 5717 5717 5717 5718 5718 5718 5719 5719 5719 5720 5720 5720 5721 5722 5722 5722 5722 5723 5723 5724 5724 5725 5726 5726 5727 5727 5728 5729 5729 5730 5731 5731 5732 5733 5734 5734 5735 5736 5737 5737 5738 5738 5739 5740 5741 5742 5742 5743 5744 5745 5746 5747 5748 5748 5749 5749 5750 5751 5751 5752 5753 5754 5755 5756 5757 5758 5759 5760 5761 5762 5763 5764
5707 5707 5707 5707 5707 5707 5708 5708 5708 5708 5708 5708 5708 5708 5708 5708 5709 5709 5709 5709 5710 5710 5710 5710 5711 5711 5711 5712 5712 5712 5713 5713 5713 5714 5714 5714 5715 5715 5715 5716 5716 5716 5717 5717 5718 5718 5718 5719 5719 5720 5721 5721 5722 5722 5723 5723 5724 5724 5725 5726 5726 5727 5728 5728 5729 5730 5731 5731 5732 5733 5733 5734 5734 5735 5736 5737 5738 5738 5739 5740 5741 5742 5743 5743 5744 5745 5746 5746 5747 5748 5748 5749 5750 5751 5752 5753 5754 5755 5756 5757 5758 5759 5760
5703 5703 5703 5703 5703 5703 5703 5703 5703 5703 5703 5703 5704 5704 5704 5704 5705 5705 5705 5705 5705 5706 5706 5706 5707 5707 5708 5708 5708 5708 5709 5709 5710 5710 5710 5710 5710 5711 5712 5712 5713 5713 5713 5713 5714 5714 5715 5715 5716 5717 5717 5718 5718 5719 5719 5720 5720 5721 5721 5722 5723 5723 5724 5725 5725 5726 5727 5728 5728 5728 5729 5730 5730 5731 5732 5733 5733 5734 5735 5736 5737 5738 5738 5739 5740 5741 5742 5743 5743 5744 5744 5745 5746 5747 5748 5749 5750 5751 5752 5753 5754 5756 5757
5699 5699 5699 5699 5699 5699 5699 5699 5699 5699 5699 5699 5700 5700 5700 5700 5701 5701 5701 5701 5702 5702 5702 5703 5703 5703 5704 5704 5704 5705 5705 5705 5706 5706 5707 5706 5707 5707 5708 5708 5708 5709 5709 5710 5710 5711 5711 5712 5713 5713 5714 5714 5715 5715 5716 5716 5717 5717 5718 5719 5719 5719 5720 5721 5722 5722 5723 5723 5724 5724 5725 5726 5727 5727 5728 5729 5729 5730 5731 5731 5732 5733 5734 5735 5736 5737 5738 5738 5739 5740 5740 5741 5742 5743 5744 5745 5746 5747 5748 5749 5750 5751 5753
5695 5695 5695 5695 5695 5695 5695 5695 5695 5694 5695 5695 5696 5696 5696 5696 5697 5697 5697 5698 5698 5698 5698 5699 5699 5699 5700 5700 5700 5701 5701 5702 5702 5703 5703 5702 5703 5704 5704 5704 5705 5705 5705 5706 5707 5707 5708 5708 5709 5710 5710 5711 5711 5712 5713 5713 5713 5714 5714 5715 5715 5716 5716 5717 5718 5718 5719 5719 5720 5720 5721 5722 5723 5723 5724 5725 5725 5726 5727 5727 5728 5728 5729 5730 5731 5732 5733 5734 5735 5736 5736 5737 5738 5739 5740 5741 5742 5743 5744 5745 5746 5747 5748
5691 5691 5691 5691 5691 5691 5691 5691 5691 5690 5690 5691 5692 5692 5692 5692 5693 5693 5693 5694 5694 5694 5695 5695 5695 5696 5696 5697 5697 5697 5698 5698 5698 5699 5698 5698 5699 5700 5700 5701 5701 5702 5702 5703 5703 5703 5704 5705 5705 5706 5707 5708 5708 5708 5709 5709 5710 5710 5711 5711 5712 5712 5713 5713 5714 5714 5715 5715 5716 5716 5717 5718 5718 5719 5720 5721 5721 5722 5723 5723 5723 5724 5725 5726 5727 5728 5729 5730 5731 5732 5732 5733 5734 5735 5736 5737 5738 5738 5740 5741 5742 5743 5744
5687 5687 5687 5687 5687 5687 5687 5687 5687 5687 5687 5687 5687 5688 5688 5688 5688 5689 5689 5690 5690 5690 5691 5691 5692 5692 5692 5693 5693 5693 5694 5694 5695 5695 5696 5695 5696 5696 5697 5697 5698 5698 5699 5699 5699 5699 5701 5701 5702 5703 5703 5704 5704 5705 5705 5706 5706 5707 5707 5708 5708 5708 5709 5709 5710 5710 5711 5711 5712 5712 5713 5713 5714 5715 5716 5716 5717 5718 5718 5719 5719 5720 5721 5721 5722 5723 5724 5725 5726 5727 5728 5729 5730 5731 5731 5732 5733 5734 5735 5736 5738 5738 5739
5682 5683 5683 5683 5683 5683 5683 5683 5683 5682 5683 5683 5683 5684 5684 5684 5684 5685 5685 5686 5686 5687 5687 5687 5688 5688 5688 5689 5689 5690 5690 5691 5691 5692 5692 5692 5693 5693 5693 5694 5694 5694 5695 5696 5696 5696 5697 5698 5698 5698 5700 5700 5701 5701 5701 5702 5702 5702 5703 5703 5704 5704 5705 5705 5706 5706 5707 5707 5708 5708 5709 5709 5710 5711 5711 5712 5713 5713 5714 5714 5715 5716 5716 5717 5718 5719 5720 5721 5722 5723 5724 5725 5726 5726 5727 5728 5729 5730 5731 5732 5733 5734 5735
5678 5678 5678 5678 5678 5678 5678 5678 5678 5678 5678 5679 5679 5680 5680 5680 5680 5681 5682 5682 5682 5683 5683 5683 5684 5685 5685 5685 5685 5686 5687 5687 5688 5688 5688 5688 5689 5690 5689 5690 5690 5691 5691 5692 5692 5692 5693 5695 5695 5695 5695 5697 5697 5697 5697 5698 5698 5698 5699 5699 5699 5700 5701 5701 5702 5702 5702 5703 5703 5704 5704 5705 5705 5706 5707 5707 5708 5708 5709 5710 5710 5711 5712 5713 5713 5714 5715 5716 5717 5718 5719 5720 5721 5722 5723 5724 5724 5725 5726 5728 5728 5730 5731
5674 5674 5674 5674 5674 5674 5674 5674 5674 5674 5674 5675 5675 5676 5676 5676 5676 5677 5678 5678 5678 5679 5679 5679 5680 5681 5681 5681 5682 5682 5683 5683 5684 5684 5685 5685 5686 5686 5686 5687 5687 5688 5688 5688 5688 5689 5689 5691 5691 5691 5691 5693 5693 5693 5693 5693 5694 5694 5694 5695 5695 5696 5696 5697 5697 5698 5698 5698 5699 5699 5700 5700 5701 5702 5702 5703 5703 5704 5704 5705 5706 5707 5707 5708 5709 5710 5711 5712 5713 5713 5714 5716 5717 5718 5718 5719 5720 5721 5722 5723 5724 5725 5726
5670 5670 5670 5670 5669 5669 5669 5669 5670 5670 5670 5671 5671 5671 5672 5672 5672 5673 5673 5674 5674 5675 5675 5676 5676 5677 5677 5678 5678 5678 5679 5679 5680 5681 5681 5681 5682 5682 5683 5683 5683 5683 5684 5684 5684 5685 5686 5686 5687 5686 5686 5689 5689 5688 5688 5689 5689 5690 5690 5690 5691 5692 5692 5692 5693 5693 5693 5694 5694 5695 5695 5696 5696 5697 5697 5698 5698 5699 5699 5700 5701 5702 5703 5703 5704 5705 5706 5707 5708 5709 5710 5711 5712 5713 5714 5715 5715 5716 5717 5718 5719 5721 5722
5666 5666 5666 5666 5666 5665 5665 5665 5665 5666 5666 5666 5667 5667 5668 5668 5668 5669 5669 5670 5670 5671 5671 5672 5672 5673 5673 5674 5674 5675 5675 5675 5676 5677 5678 5678 5678 5678 5679 5679 5679 5680 5680 5680 5681 5681 5681 5682 5682 5682 5682 5684 5684 5684 5685 5685 5685 5685 5686 5686 5687 5687 5688 5688 5688 5688 5689 5689 5690 5690 5691 5691 5692 5692 5693 5693 5693 5694 5694 5695 5696 5697 5698 5698 5699 5700 5701 5702 5703 5704 5705 5706 5707 5708 5709 5710 5711 5712 5713 5714 5715 5716 5717
5662 5662 5662 5662 5662 5661 5661 5661 5661 5661 5661 5662 5662 5663 5663 5664 5664 5664 5665 5665 5666 5667 5667 5668 5668 5668 5669 5670 5670 5671 5671 5671 5672 5673 5674 5674 5674 5674 5675 5675 5676 5676 5676 5676 5677 5677 5678 5678 5678 5678 5679 5679 5679 5680 5681 5681 5681 5681 5682 5682 5683 5683 5683 5683 5683 5684 5684 5685 5685 5686 5686 5687 5687 5688 5688 5688 5689 5689 5690 5690 5691 5691 5692 5693 5694 5695 5696 5697 5698 5699 5700 5701 5702 5703 5704 5705 5706 5707 5708 5709 5710 5711 5712
5658 5658 5658 5657 5657 5657 5657 5656 5656 5656 5656 5657 5658 5658 5659 5659 5660 5660 5660 5661 5661 5662 5663 5663 5664 5664 5665 5666 5666 5667 5667 5667 5668 5669 5669 5670 5670 5671 5672 5672 5672 5672 5672 5673 5673 5673 5673 5674 5674 5675 5676 5675 5675 5676 5677 5677 5677 5677 5677 5678 5678 5678 5679 5679 5679 5679 5680 5680 5681 5681 5681 5682 5682 5683 5683 5683 5684 5684 5684 5685 5685 5686 5687 5688 5689 5690 5691 5692 5693 5694 5695 5696 5697 5698 5699 5700 5701 5702 5703 5704 5705 5706 5707
5653 5653 5653 5653 5653 5652 5652 5652 5652 5652 5652 5652 5653 5653 5654 5655 5655 5656 5656 5656 5657 5658 5658 5659 5660 5660 5661 5662 5662 5663 5663 5663 5664 5665 5665 5665 5666 5667 5668 5668 5668 5668 5669 5669 5669 5670 5670 5670 5670 5671 5671 5671 5672 5672 5672 5672 5673 5673 5673 5673 5674 5674 5674 5674 5674 5675 5675 5675 5676 5676 5677 5677 5677 5677 5678 5678 5678 5679 5679 5680 5680 5680 5681 5682 5683 5684 5685 5686 5687 5688 5689 5690 5691 5693 5693 5694 5695 5697 5698 5699 5700 5701 5702